BSAT-3B

Last updated on Thu Mar 05 2026 00:02:56 GMT+0000 (Coordinated Universal Time)

1 37207U 10056B 26063.65300100 -.00000361 00000+0 00000+0 0 9992 2 37207 0.0841 248.2418 0001924 33.7835 225.2830 1.00270564 51056
UTC large
Height (km)
Speed (km/s)
/
Latitude / Longitude
Inclination (degrees)
Orbital Period (minutes)
Azimuth
Elevation
Range (km)
Doppler Factor

Next 0 passes for location: London (51.5072 / 0.1276)

Sorry there are no passes over London.